Time,TemperatureF,DewpointF,PressureIn,WindDirection,WindDirectionDegrees,WindSpeedMPH,WindSpeedGustMPH,Humidity,HourlyPrecipIn,Conditions,Clouds,dailyrainin,SolarRadiationWatts/m^2,SoftwareType,DateUTC
2013-06-19 00:01:00,58.0,49.0,29.91,South,184,3.0,10.0,71,0.00,,,0.00,5.000000,,2013-06-19 08:01:00,
2013-06-19 00:11:00,58.0,49.0,29.92,South,179,3.0,9.0,72,0.00,,,0.00,0.000000,,2013-06-19 08:11:00,
2013-06-19 00:22:00,58.0,49.0,29.93,South,170,2.0,12.0,72,0.00,,,0.00,0.000000,,2013-06-19 08:22:00,
2013-06-19 00:33:00,58.0,49.0,29.93,SW,225,2.0,8.0,72,0.00,,,0.00,0.000000,,2013-06-19 08:33:00,
2013-06-19 00:42:00,58.0,49.0,29.93,SSW,209,3.0,6.0,73,0.00,,,0.00,0.000000,,2013-06-19 08:42:00,
2013-06-19 00:53:00,58.0,50.0,29.93,South,191,1.0,6.0,74,0.00,,,0.00,0.000000,,2013-06-19 08:53:00,
2013-06-19 01:02:00,57.0,49.0,29.93,SW,218,1.0,3.0,75,0.00,,,0.00,0.000000,,2013-06-19 09:02:00,
2013-06-19 01:11:00,57.0,49.0,29.93,SW,218,1.0,3.0,75,0.00,,,0.00,0.000000,,2013-06-19 09:11:00,
2013-06-19 01:22:00,57.0,50.0,29.93,SSW,212,1.0,6.0,76,0.00,,,0.00,0.000000,,2013-06-19 09:22:00,
2013-06-19 01:34:00,56.0,49.0,29.93,SSW,198,0.0,5.0,78,0.00,,,0.00,0.000000,,2013-06-19 09:34:00,
2013-06-19 01:43:00,55.0,49.0,29.92,SSW,192,1.0,5.0,79,0.00,,,0.00,0.000000,,2013-06-19 09:43:00,
2013-06-19 01:53:00,55.0,49.0,29.92,SSW,192,1.0,5.0,79,0.00,,,0.00,0.000000,,2013-06-19 09:53:00,
2013-06-19 02:01:00,55.0,49.0,29.92,South,191,1.0,6.0,80,0.00,,,0.00,0.000000,,2013-06-19 10:01:00,
2013-06-19 02:11:00,55.0,49.0,29.92,South,191,1.0,6.0,80,0.00,,,0.00,0.000000,,2013-06-19 10:11:00,
2013-06-19 02:22:00,54.0,49.0,29.94,South,190,1.0,3.0,83,0.00,,,0.00,0.000000,,2013-06-19 10:22:00,
2013-06-19 02:33:00,53.0,48.0,29.93,SSW,192,0.0,2.0,84,0.00,,,0.00,0.000000,,2013-06-19 10:33:00,
2013-06-19 02:42:00,53.0,48.0,29.93,SSW,213,1.0,3.0,84,0.00,,,0.00,0.000000,,2013-06-19 10:42:00,
2013-06-19 02:52:00,53.0,48.0,29.93,SSE,167,0.0,3.0,84,0.00,,,0.00,0.000000,,2013-06-19 10:52:00,
2013-06-19 03:02:00,53.0,48.0,29.93,SSE,167,0.0,2.0,84,0.00,,,0.00,0.000000,,2013-06-19 11:02:00,
2013-06-19 03:11:00,53.0,48.0,29.93,SSE,167,0.0,2.0,84,0.00,,,0.00,0.000000,,2013-06-19 11:11:00,
2013-06-19 03:22:00,53.0,48.0,29.93,SW,214,0.0,3.0,84,0.00,,,0.00,0.000000,,2013-06-19 11:22:00,
2013-06-19 03:32:00,53.0,49.0,29.93,SW,214,0.0,2.0,85,0.00,,,0.00,0.000000,,2013-06-19 11:32:00,
2013-06-19 03:42:00,53.0,49.0,29.92,SW,214,0.0,2.0,85,0.00,,,0.00,0.000000,,2013-06-19 11:42:00,
2013-06-19 03:54:00,53.0,49.0,29.92,SW,214,0.0,2.0,85,0.00,,,0.00,0.000000,,2013-06-19 11:54:00,
2013-06-19 04:01:00,53.0,49.0,29.92,ESE,107,0.0,2.0,86,0.00,,,0.00,0.000000,,2013-06-19 12:01:00,
2013-06-19 04:11:00,52.0,48.0,29.92,ESE,107,0.0,1.0,86,0.00,,,0.00,0.000000,,2013-06-19 12:11:00,
2013-06-19 04:22:00,51.0,47.0,29.91,ESE,107,0.0,1.0,87,0.00,,,0.00,0.000000,,2013-06-19 12:22:00,
2013-06-19 04:34:00,50.0,46.0,29.91,ESE,107,0.0,0.0,87,0.00,,,0.00,0.000000,,2013-06-19 12:34:00,
2013-06-19 04:44:00,50.0,46.0,29.91,ESE,107,0.0,1.0,87,0.00,,,0.00,0.000000,,2013-06-19 12:44:00,
2013-06-19 04:52:00,50.0,46.0,29.91,ESE,107,0.0,1.0,87,0.00,,,0.00,0.000000,,2013-06-19 12:52:00,
2013-06-19 05:02:00,49.0,46.0,29.91,ESE,107,0.0,0.0,88,0.00,,,0.00,0.000000,,2013-06-19 13:02:00,
2013-06-19 05:11:00,49.0,46.0,29.91,ESE,107,0.0,0.0,89,0.00,,,0.00,5.000000,,2013-06-19 13:11:00,
2013-06-19 05:22:00,48.0,45.0,29.91,ESE,107,0.0,0.0,89,0.00,,,0.00,9.000000,,2013-06-19 13:22:00,
2013-06-19 05:33:00,47.0,44.0,29.91,ESE,107,0.0,0.0,89,0.00,,,0.00,12.000000,,2013-06-19 13:33:00,
2013-06-19 05:42:00,47.0,45.0,29.90,ESE,107,0.0,1.0,91,0.00,,,0.00,19.000000,,2013-06-19 13:42:00,
2013-06-19 05:53:00,47.0,45.0,29.90,ESE,107,0.0,1.0,91,0.00,,,0.00,19.000000,,2013-06-19 13:53:00,
2013-06-19 06:01:00,46.0,44.0,29.90,ESE,107,0.0,0.0,91,0.00,,,0.00,26.000000,,2013-06-19 14:01:00,
2013-06-19 06:11:00,46.0,44.0,29.91,ESE,107,0.0,0.0,91,0.00,,,0.00,25.000000,,2013-06-19 14:11:00,
2013-06-19 06:22:00,46.0,44.0,29.90,ESE,107,0.0,2.0,92,0.00,,,0.00,30.000000,,2013-06-19 14:22:00,
2013-06-19 06:33:00,46.0,44.0,29.90,ESE,107,0.0,1.0,93,0.00,,,0.00,49.000000,,2013-06-19 14:33:00,
2013-06-19 06:43:00,47.0,45.0,29.90,ESE,107,0.0,2.0,94,0.00,,,0.00,111.000000,,2013-06-19 14:43:00,
2013-06-19 06:52:00,49.0,47.0,29.91,East,91,1.0,3.0,94,0.00,,,0.00,151.000000,,2013-06-19 14:52:00,
2013-06-19 07:01:00,50.0,47.0,29.90,ENE,60,2.0,5.0,91,0.00,,,0.00,79.000000,,2013-06-19 15:01:00,
2013-06-19 07:11:00,50.0,47.0,29.90,ENE,60,2.0,5.0,91,0.00,,,0.00,79.000000,,2013-06-19 15:11:00,
2013-06-19 07:22:00,52.0,49.0,29.89,East,83,1.0,3.0,89,0.00,,,0.00,105.000000,,2013-06-19 15:22:00,
2013-06-19 07:33:00,53.0,49.0,29.89,East,94,1.0,5.0,86,0.00,,,0.00,53.000000,,2013-06-19 15:33:00,
2013-06-19 07:42:00,54.0,49.0,29.89,East,90,1.0,7.0,84,0.00,,,0.00,49.000000,,2013-06-19 15:42:00,
2013-06-19 07:52:00,54.0,49.0,29.88,East,92,0.0,3.0,84,0.00,,,0.00,42.000000,,2013-06-19 15:52:00,
2013-06-19 08:01:00,54.0,49.0,29.89,East,86,1.0,5.0,84,0.00,,,0.00,63.000000,,2013-06-19 16:01:00,
2013-06-19 08:11:00,54.0,49.0,29.89,East,86,1.0,5.0,84,0.00,,,0.00,63.000000,,2013-06-19 16:11:00,
2013-06-19 08:22:00,54.0,49.0,29.89,East,87,0.0,2.0,84,0.00,,,0.00,93.000000,,2013-06-19 16:22:00,
2013-06-19 08:33:00,54.0,49.0,29.89,East,86,0.0,3.0,84,0.00,,,0.00,408.000000,,2013-06-19 16:33:00,
2013-06-19 08:43:00,58.0,52.0,29.89,East,79,1.0,7.0,80,0.00,,,0.00,127.000000,,2013-06-19 16:43:00,
2013-06-19 08:52:00,58.0,52.0,29.89,East,79,1.0,7.0,80,0.00,,,0.00,127.000000,,2013-06-19 16:52:00,
2013-06-19 09:02:00,59.0,51.0,29.88,East,88,2.0,6.0,75,0.00,,,0.00,104.000000,,2013-06-19 17:02:00,
2013-06-19 09:11:00,59.0,52.0,29.88,NNE,26,0.0,3.0,77,0.00,,,0.00,153.000000,,2013-06-19 17:11:00,
2013-06-19 09:22:00,60.0,52.0,29.88,NNE,17,1.0,3.0,75,0.00,,,0.00,545.000000,,2013-06-19 17:22:00,
2013-06-19 09:33:00,61.0,52.0,29.87,NNE,18,2.0,5.0,73,0.00,,,0.00,526.000000,,2013-06-19 17:33:00,
2013-06-19 10:33:00,69.0,51.0,29.86,NNE,25,3.0,9.0,53,0.00,,,0.00,629.000000,,2013-06-19 18:33:00,
2013-06-19 11:22:00,68.0,49.0,29.85,ESE,123,6.0,15.0,51,0.00,,,0.00,216.000000,,2013-06-19 19:22:00,
2013-06-19 11:32:00,68.0,49.0,29.85,NE,42,7.0,15.0,51,0.00,,,0.00,301.000000,,2013-06-19 19:32:00,
2013-06-19 11:43:00,68.0,49.0,29.84,East,79,6.0,15.0,51,0.00,,,0.00,287.000000,,2013-06-19 19:43:00,
2013-06-19 11:52:00,68.0,49.0,29.85,East,95,4.0,16.0,51,0.00,,,0.00,155.000000,,2013-06-19 19:52:00,
2013-06-19 12:02:00,68.0,49.0,29.85,East,88,3.0,16.0,51,0.00,,,0.00,190.000000,,2013-06-19 20:02:00,
2013-06-19 12:11:00,68.0,49.0,29.85,East,88,3.0,16.0,51,0.00,,,0.00,190.000000,,2013-06-19 20:11:00,
2013-06-19 12:22:00,68.0,49.0,29.85,ESE,117,7.0,16.0,50,0.00,,,0.00,415.000000,,2013-06-19 20:22:00,
2013-06-19 13:22:00,68.0,48.0,29.86,SE,124,9.0,15.0,48,0.00,,,0.00,93.000000,,2013-06-19 21:22:00,
2013-06-19 13:33:00,68.0,48.0,29.86,SE,124,9.0,15.0,48,0.00,,,0.00,93.000000,,2013-06-19 21:33:00,
2013-06-19 13:44:00,68.0,48.0,29.87,SE,136,4.0,10.0,48,0.00,,,0.00,146.000000,,2013-06-19 21:44:00,
2013-06-19 13:52:00,68.0,48.0,29.87,SE,136,4.0,10.0,48,0.00,,,0.00,146.000000,,2013-06-19 21:52:00,
2013-06-19 14:01:00,66.0,51.0,29.88,WSW,249,2.0,9.0,58,0.00,,,0.00,56.000000,,2013-06-19 22:01:00,
2013-06-19 14:11:00,63.0,50.0,29.88,SSW,202,4.0,12.0,62,0.00,,,0.00,56.000000,,2013-06-19 22:11:00,
2013-06-19 14:22:00,61.0,48.0,29.88,SSW,193,5.0,15.0,63,0.00,,,0.00,114.000000,,2013-06-19 22:22:00,
2013-06-19 14:34:00,61.0,48.0,29.89,South,179,3.0,12.0,63,0.00,,,0.00,171.000000,,2013-06-19 22:34:00,
2013-06-19 14:42:00,63.0,49.0,29.89,South,190,7.0,13.0,61,0.00,,,0.00,1141.000000,,2013-06-19 22:42:00,
2013-06-19 14:53:00,64.0,49.0,29.90,SSW,195,4.0,15.0,59,0.00,,,0.00,369.000000,,2013-06-19 22:53:00,
2013-06-19 15:02:00,64.0,49.0,29.90,SSE,159,5.0,12.0,59,0.00,,,0.00,378.000000,,2013-06-19 23:02:00,
2013-06-19 15:11:00,65.0,51.0,29.90,SSE,162,3.0,10.0,60,0.00,,,0.00,1048.000000,,2013-06-19 23:11:00,
2013-06-19 15:22:00,65.0,51.0,29.90,SSE,162,3.0,10.0,60,0.00,,,0.00,1048.000000,,2013-06-19 23:22:00,
2013-06-19 15:33:00,66.0,50.0,29.90,SW,236,5.0,12.0,56,0.00,,,0.00,1060.000000,,2013-06-19 23:33:00,
2013-06-19 15:43:00,64.0,50.0,29.91,WSW,258,2.0,8.0,61,0.00,,,0.00,141.000000,,2013-06-19 23:43:00,
2013-06-19 15:52:00,64.0,50.0,29.91,WSW,258,2.0,8.0,61,0.00,,,0.00,141.000000,,2013-06-19 23:52:00,
2013-06-19 16:01:00,63.0,50.0,29.91,South,186,3.0,10.0,63,0.00,,,0.00,237.000000,,2013-06-20 00:01:00,
2013-06-19 16:11:00,64.0,50.0,29.91,SSW,200,3.0,10.0,61,0.00,,,0.00,846.000000,,2013-06-20 00:11:00,
2013-06-19 16:22:00,66.0,52.0,29.91,SW,215,2.0,12.0,60,0.00,,,0.00,838.000000,,2013-06-20 00:22:00,
2013-06-19 16:33:00,67.0,52.0,29.92,WSW,245,1.0,9.0,59,0.00,,,0.00,879.000000,,2013-06-20 00:33:00,
2013-06-19 16:43:00,68.0,52.0,29.92,West,278,3.0,8.0,56,0.00,,,0.00,724.000000,,2013-06-20 00:43:00,
2013-06-19 16:52:00,68.0,52.0,29.92,West,278,3.0,8.0,56,0.00,,,0.00,724.000000,,2013-06-20 00:52:00,
2013-06-19 17:01:00,67.0,51.0,29.92,South,187,2.0,12.0,57,0.00,,,0.00,675.000000,,2013-06-20 01:01:00,
2013-06-19 17:11:00,67.0,51.0,29.92,WSW,238,3.0,10.0,57,0.00,,,0.00,352.000000,,2013-06-20 01:11:00,
2013-06-19 17:22:00,67.0,51.0,29.92,South,191,5.0,10.0,56,0.00,,,0.00,494.000000,,2013-06-20 01:22:00,
2013-06-19 17:33:00,66.0,51.0,29.93,North,349,3.0,8.0,59,0.00,,,0.00,663.000000,,2013-06-20 01:33:00,
2013-06-19 17:44:00,66.0,51.0,29.92,North,10,5.0,12.0,59,0.00,,,0.00,288.000000,,2013-06-20 01:44:00,
2013-06-19 17:52:00,66.0,51.0,29.92,North,10,5.0,12.0,59,0.00,,,0.00,288.000000,,2013-06-20 01:52:00,
2013-06-19 18:02:00,69.0,50.0,29.92,SE,129,4.0,14.0,51,0.00,,,0.00,668.000000,,2013-06-20 02:02:00,
2013-06-19 18:11:00,70.0,49.0,29.92,SSE,158,5.0,12.0,48,0.00,,,0.00,661.000000,,2013-06-20 02:11:00,
2013-06-19 18:23:00,70.0,49.0,29.93,SSE,157,3.0,9.0,48,0.00,,,0.00,485.000000,,2013-06-20 02:23:00,
2013-06-19 18:43:00,69.0,50.0,29.93,South,173,5.0,12.0,50,0.00,,,0.00,169.000000,,2013-06-20 02:43:00,
2013-06-19 18:52:00,69.0,50.0,29.93,South,173,5.0,12.0,50,0.00,,,0.00,169.000000,,2013-06-20 02:52:00,
2013-06-19 19:02:00,67.0,48.0,29.94,South,170,6.0,12.0,51,0.00,,,0.00,243.000000,,2013-06-20 03:02:00,
2013-06-19 19:11:00,67.0,50.0,29.94,SSW,209,3.0,12.0,54,0.00,,,0.00,473.000000,,2013-06-20 03:11:00,
2013-06-19 19:22:00,64.0,49.0,29.95,SSW,209,3.0,12.0,58,0.00,,,0.00,399.000000,,2013-06-20 03:22:00,
2013-06-19 19:33:00,64.0,49.0,29.95,SSW,208,3.0,10.0,58,0.00,,,0.00,209.000000,,2013-06-20 03:33:00,
2013-06-19 19:43:00,64.0,49.0,29.96,South,179,5.0,8.0,58,0.00,,,0.00,209.000000,,2013-06-20 03:43:00,
2013-06-19 19:54:00,64.0,48.0,29.96,SSW,195,5.0,13.0,56,0.00,,,0.00,178.000000,,2013-06-20 03:54:00,
2013-06-19 20:01:00,63.0,48.0,29.96,SW,219,4.0,8.0,58,0.00,,,0.00,151.000000,,2013-06-20 04:01:00,
2013-06-19 20:11:00,63.0,48.0,29.96,SW,219,4.0,8.0,58,0.00,,,0.00,151.000000,,2013-06-20 04:11:00,
2013-06-19 20:22:00,61.0,49.0,29.97,WSW,250,1.0,6.0,64,0.00,,,0.00,128.000000,,2013-06-20 04:22:00,
2013-06-19 20:33:00,61.0,50.0,29.97,SW,219,1.0,7.0,66,0.00,,,0.00,146.000000,,2013-06-20 04:33:00,
2013-06-19 20:43:00,60.0,50.0,29.97,SSW,206,3.0,6.0,69,0.00,,,0.00,127.000000,,2013-06-20 04:43:00,
2013-06-19 20:53:00,59.0,50.0,29.97,SSW,200,2.0,6.0,71,0.00,,,0.00,118.000000,,2013-06-20 04:53:00,
2013-06-19 21:01:00,59.0,50.0,29.97,SSW,200,2.0,6.0,71,0.00,,,0.00,118.000000,,2013-06-20 05:01:00,
2013-06-19 21:12:00,59.0,50.0,29.97,South,180,2.0,8.0,71,0.00,,,0.00,84.000000,,2013-06-20 05:12:00,
2013-06-19 21:22:00,58.0,50.0,29.97,South,191,1.0,3.0,74,0.00,,,0.00,58.000000,,2013-06-20 05:22:00,
2013-06-19 21:33:00,57.0,50.0,29.97,South,190,0.0,6.0,78,0.00,,,0.00,49.000000,,2013-06-20 05:33:00,
2013-06-19 21:43:00,56.0,50.0,29.97,SSW,197,2.0,5.0,80,0.00,,,0.00,53.000000,,2013-06-20 05:43:00,
2013-06-19 21:52:00,56.0,50.0,29.97,SSW,197,2.0,5.0,80,0.00,,,0.00,53.000000,,2013-06-20 05:52:00,
2013-06-19 22:01:00,56.0,50.0,29.98,SSW,193,1.0,3.0,81,0.00,,,0.00,54.000000,,2013-06-20 06:01:00,
2013-06-19 22:11:00,55.0,49.0,29.98,SW,227,2.0,5.0,81,0.00,,,0.00,47.000000,,2013-06-20 06:11:00,
2013-06-19 22:22:00,55.0,50.0,29.98,SSW,209,0.0,3.0,82,0.00,,,0.00,60.000000,,2013-06-20 06:22:00,
2013-06-19 22:33:00,55.0,50.0,29.98,SW,219,1.0,3.0,82,0.00,,,0.00,62.000000,,2013-06-20 06:33:00,
2013-06-19 22:43:00,55.0,50.0,29.98,West,268,0.0,3.0,83,0.00,,,0.00,56.000000,,2013-06-20 06:43:00,
2013-06-19 22:53:00,55.0,50.0,29.98,West,268,0.0,3.0,83,0.00,,,0.00,56.000000,,2013-06-20 06:53:00,
2013-06-19 23:01:00,55.0,50.0,29.99,South,173,2.0,5.0,83,0.00,,,0.00,49.000000,,2013-06-20 07:01:00,
2013-06-19 23:11:00,54.0,49.0,29.99,WSW,240,0.0,2.0,84,0.00,,,0.00,23.000000,,2013-06-20 07:11:00,
2013-06-19 23:22:00,53.0,49.0,30.00,WSW,240,0.0,2.0,85,0.00,,,0.00,18.000000,,2013-06-20 07:22:00,
2013-06-19 23:33:00,53.0,49.0,30.00,WSW,240,0.0,1.0,86,0.00,,,0.00,12.000000,,2013-06-20 07:33:00,
2013-06-19 23:43:00,52.0,48.0,30.00,WSW,239,0.0,2.0,86,0.00,,,0.00,9.000000,,2013-06-20 07:43:00,
2013-06-19 23:52:00,52.0,48.0,30.00,WSW,239,0.0,2.0,86,0.00,,,0.00,9.000000,,2013-06-20 07:52:00,